Tracking 23583 objects as of 28-Jul-2021
HD Live streaming from Space Station
objects crossing your sky now

SKYNET 4E

Track SKYNET 4E now!
SKYNET 4E is classified as:


NORAD ID: 25639
Int'l Code: 1999-009B
Perigee: 35,784.9 km
Apogee: 35,803.1 km
Inclination: 11.1 °
Period: 1,436.1 minutes
Semi major axis: 42165 km
RCS: 5.2477 m2 (large)
Launch date: February 26, 1999
Source: United Kingdom (UK)
Launch site: FRENCH GUIANA (FRGUI)

Used primarily by UK's armed forces, government departments, agencies and other organizations that require secure communications.
aabbcc
Your satellite tracking list
Your tracking list is empty




NASA's NSSDC Master Catalog

Two Line Element Set (TLE):
1 25639U 99009B   21208.75379396 -.00000047  00000-0  00000-0 0  9996
2 25639  11.0829  18.6911 0002158 107.4990  89.6401  1.00270787 33488
Source of the keplerian elements: AFSPC